Location: LDNL
(36.4545°S, 141.6685°E)
Time: 16:58:12
(UTC+10:00)

Courier 1B Rocket - Pass Details

Date: 14 August 2022
Orbit: 920 x 1202 km, 28.2° (Epoch: 25 September)

Event Time Altitude Azimuth Distance (km) Brightness Sun altitude
Exits shadow 03:11:11 14° 69° (ENE) 2,816 7.7 -49.5°
Drops below altitude 10° 03:12:24 10° 75° (ENE) 3,123 8.0 -49.3°
Sets 03:15:41 0° 87° (E) 4,066 8.8 -48.7°
